Content
SEND FEEDBACK

Daily
Averages
Monthly
Summary
Spain

PUERTO DEL ROSARIO, SPAIN


Home > Europe > Spain
Elevation: 98 feet     Latitude: 28 27N     Longitude: 013 52W

WEATHER
 
SELECT A DAY
Number of Records: 218,687;   Date Range: 7/1/96 - 9/29/14
 
SHARE

PRINT THIS DATA

[ ← Previous Day ]
WEATHER ALMANAC - OCTOBER 22, 2013
[ Next Day → ]
[ °C ]   °F
Weather ElementAverageHighLow
Temperature73.8 °F78.8 °F (6:00 pm)66.2 °F (6:30 am)
Dewpoint63.3 °F66.2 °F (10:00 am)57.2 °F (7:30 am)
Humidity70 %78 % (6:30 am)57 % (6:30 pm)
Barometer30.02 in30.06 in (10:30 pm)29.98 in (6:30 am)
Wind Speed6.5 mph11.5 mph (6:00 pm)
Weather ElementAverage
Visibility6.2 mi
Wind DirectionSSE (150 °)

Weather ElementTotal
Precipitation---
Cooling Degree Days7.5 (Base 65)
Growing Degree Days22.5 (Base 50)
Averaged from 34 records on October 22, 2013
WEATHER CONDITIONS BREAKOUT
WIND DIRECTION BREAKOUT
WEATHER BY HOUR - OCTOBER 22, 2013
[ °C ]   °F
Local TimeTemperatureDewpointHumidityBarometerVisibilityWind DirectionWind SpeedGust SpeedPrecipitationEventsConditions
6:30 AM66.2 °F59.0 °F78 %29.98 inVariable2.3 mphClear
7:00 AM66.2 °F59.0 °F78 %30.01 inNW (320°)5.8 mphClear
7:30 AM66.2 °F57.2 °F73 %30.01 in6.2 miNW (320°)4.6 mphPartly Cloudy
8:00 AM66.2 °F59.0 °F78 %30.01 in6.2 miNW (310°)4.6 mphPartly Cloudy
8:30 AM66.2 °F59.0 °F78 %30.01 in6.2 miNW (310°)5.8 mphPartly Cloudy
9:00 AM68.0 °F60.8 °F78 %30.01 in6.2 miNW (310°)6.9 mphPartly Cloudy
9:30 AM71.6 °F62.6 °F73 %30.04 in6.2 miNW (310°)3.5 mphPartly Cloudy
10:00 AM73.4 °F66.2 °F78 %30.04 in6.2 miNNW (340°)3.5 mphPartly Cloudy
10:30 AM73.4 °F66.2 °F78 %30.04 in6.2 miVariable2.3 mphPartly Cloudy
11:00 AM73.4 °F66.2 °F78 %30.04 in6.2 miVariable2.3 mphPartly Cloudy
11:30 AM75.2 °F66.2 °F73 %30.04 in6.2 miEast (90°)4.6 mphPartly Cloudy
12:00 PM75.2 °F66.2 °F73 %30.04 in6.2 miEast (100°)5.8 mphPartly Cloudy
12:30 PM75.2 °F66.2 °F73 %30.04 in6.2 miESE (110°)5.8 mphPartly Cloudy
1:00 PM75.2 °F66.2 °F73 %30.04 in6.2 miESE (110°)5.8 mphPartly Cloudy
1:30 PM75.2 °F66.2 °F73 %30.04 in6.2 miEast (100°)5.8 mphPartly Cloudy
2:00 PM75.2 °F66.2 °F73 %30.01 in6.2 miEast (90°)5.8 mphPartly Cloudy
2:30 PM75.2 °F66.2 °F73 %30.01 in6.2 miEast (80°)6.9 mphPartly Cloudy
3:00 PM75.2 °F66.2 °F73 %30.01 in6.2 miENE (70°)5.8 mphPartly Cloudy
3:30 PM77.0 °F64.4 °F65 %29.98 in6.2 miNE (50°)5.8 mphPartly Cloudy
4:00 PM77.0 °F62.6 °F61 %29.98 in6.2 miENE (70°)5.8 mphPartly Cloudy
4:30 PM77.0 °F64.4 °F65 %30.01 in6.2 miNE (50°)8.1 mphPartly Cloudy
5:00 PM77.0 °F64.4 °F65 %29.98 in6.2 miNE (40°)8.1 mphPartly Cloudy
5:30 PM77.0 °F66.2 °F69 %29.98 in6.2 miENE (60°)9.2 mphPartly Cloudy
6:00 PM78.8 °F64.4 °F61 %29.98 in6.2 miNE (40°)11.5 mphPartly Cloudy
6:30 PM78.8 °F62.6 °F57 %29.98 in6.2 miWNW (300°)8.1 mphPartly Cloudy
7:00 PM78.8 °F62.6 °F57 %30.01 in6.2 miNorth (350°)9.2 mphPartly Cloudy
7:30 PM77.0 °F62.6 °F61 %30.01 in6.2 miNorth (360°)11.5 mphPartly Cloudy
8:00 PM75.2 °F62.6 °F65 %30.01 inNNE (20°)8.1 mphClear
8:30 PM75.2 °F64.4 °F69 %30.01 inNNE (20°)10.4 mphClear
9:00 PM75.2 °F59.0 °F57 %30.04 inNorth (360°)10.4 mphClear
9:30 PM75.2 °F60.8 °F61 %30.04 inNNW (340°)6.9 mphClear
10:00 PM73.4 °F60.8 °F65 %30.04 inNNE (20°)6.9 mphClear
10:30 PM73.4 °F62.6 °F69 %30.06 inNNE (30°)5.8 mphClear
11:00 PM71.6 °F64.4 °F78 %30.06 inNNE (20°)5.8 mphClear
Hourly data recorded from GCFV, located miles away from Puerto del Rosario, Spain







STORIES FROM OUR PARTNERS